When you browse on this site, cookies collect data to enhance your experience and personalize the content and advertising you see.
Visit our Privacy Policy to learn more. By continuing to use the site, you agree to this use of cookies and data.
  • In Österreich
  • Länderverzeichnis
  • Für 7 Tage
  • Wassertemperatur
  • Satellitenkarten
  • Wetterkarte
  • News
  • Widgets
  • user-avatar
    Anmelden

    Stündliche Wetter Sölden

    Heute, 23 März, Samstag

    Zeit Temperatur Niederschläge Wind Luftdruck Luftfeuchtigkeit
    00:00 -1°C° 0 mm 1 m/S 587 mmHg 49%
    01:00 -2°C° 0 mm 1 m/S 587 mmHg 48%
    02:00 -4°C° 0 mm 2 m/S 586 mmHg 49%
    03:00 -4°C° 0 mm 2 m/S 586 mmHg 49%
    04:00 -4°C° 0 mm 2 m/S 586 mmHg 49%
    05:00 -4°C° 0 mm 2 m/S 586 mmHg 50%
    06:00 -4°C° 0 mm 2 m/S 586 mmHg 51%
    07:00 -4°C° 0 mm 2 m/S 586 mmHg 52%
    08:00 +1°C° 0 mm 1 m/S 587 mmHg 50%
    09:00 +4°C° 0 mm 1 m/S 589 mmHg 48%
    10:00 +7°C° 0 mm 1 m/S 590 mmHg 47%
    11:00 +8°C° 0 mm 1 m/S 590 mmHg 45%
    12:00 +9°C° 0 mm 1 m/S 591 mmHg 43%
    13:00 +10°C° 0 mm 1 m/S 591 mmHg 41%
    14:00 +10°C° 0 mm 1 m/S 591 mmHg 41%
    15:00 +9°C° 0 mm 1 m/S 590 mmHg 41%
    16:00 +9°C° 0 mm 1 m/S 590 mmHg 41%
    17:00 +6°C° 0 mm 0 m/S 589 mmHg 45%
    18:00 +3°C° 0 mm 0 m/S 587 mmHg 50%
    19:00 +1°C° 0 mm 0 m/S 586 mmHg 55%
    20:00 +1°C° 0 mm 1 m/S 586 mmHg 58%
    21:00 0°C° 0 mm 1 m/S 586 mmHg 61%
    22:00 0°C° 0 mm 1 m/S 587 mmHg 64%
    23:00 0°C° 0 mm 1 m/S 586 mmHg 64%

    Morgen, 24 März, Sonntag

    Zeit Temperatur Niederschläge Wind Luftdruck Luftfeuchtigkeit
    00:00 -1°C° 0 mm 1 m/S 586 mmHg 64%
    01:00 -1°C° 0 mm 1 m/S 586 mmHg 64%
    02:00 -1°C° 0 mm 1 m/S 585 mmHg 63%
    03:00 -1°C° 0 mm 1 m/S 585 mmHg 62%
    04:00 -2°C° 0 mm 1 m/S 585 mmHg 62%
    05:00 -1°C° 0 mm 1 m/S 585 mmHg 61%
    06:00 -1°C° 0 mm 1 m/S 585 mmHg 60%
    07:00 -1°C° 0 mm 1 m/S 585 mmHg 59%
    08:00 +2°C° 0 mm 1 m/S 586 mmHg 53%
    09:00 +3°C° 0 mm 0 m/S 587 mmHg 47%
    10:00 +6°C° 0 mm 0 m/S 588 mmHg 42%
    11:00 +7°C° 0 mm 0 m/S 588 mmHg 40%
    12:00 +8°C° 0 mm 0 m/S 588 mmHg 39%
    13:00 +10°C° 0 mm 1 m/S 589 mmHg 37%
    14:00 +9°C° 0 mm 1 m/S 588 mmHg 38%
    15:00 +8°C° 0 mm 0 m/S 588 mmHg 39%
    16:00 +8°C° 0 mm 0 m/S 587 mmHg 39%
    17:00 +6°C° 0 mm 1 m/S 586 mmHg 47%
    18:00 +4°C° 0 mm 1 m/S 585 mmHg 55%
    19:00 +2°C° 0 mm 1 m/S 584 mmHg 63%
    20:00 +1°C° 0 mm 1 m/S 584 mmHg 68%
    21:00 -1°C° 0 mm 2 m/S 584 mmHg 73%
    22:00 -2°C° 0 mm 2 m/S 584 mmHg 77%
    23:00 -2°C° 0 mm 2 m/S 584 mmHg 79%

    übermorgen, 25 März, Montag

    Zeit Temperatur Niederschläge Wind Luftdruck Luftfeuchtigkeit
    00:00 -3°C° 0 mm 2 m/S 584 mmHg 80%
    01:00 -3°C° 0 mm 2 m/S 584 mmHg 81%
    02:00 -3°C° 0 mm 2 m/S 583 mmHg 81%
    03:00 -4°C° 0 mm 2 m/S 583 mmHg 81%
    04:00 -4°C° 0 mm 2 m/S 582 mmHg 81%
    05:00 -4°C° 0 mm 2 m/S 582 mmHg 79%
    06:00 -4°C° 0 mm 2 m/S 582 mmHg 78%
    07:00 -4°C° 0 mm 2 m/S 582 mmHg 76%
    08:00 -2°C° 0 mm 2 m/S 583 mmHg 68%
    09:00 +1°C° 0 mm 2 m/S 584 mmHg 60%
    10:00 +3°C° 0 mm 2 m/S 585 mmHg 53%
    11:00 +4°C° 0 mm 2 m/S 585 mmHg 50%
    12:00 +5°C° 0 mm 2 m/S 585 mmHg 47%
    13:00 +5°C° 0 mm 2 m/S 585 mmHg 45%
    14:00 +5°C° 0 mm 2 m/S 585 mmHg 46%
    15:00 +5°C° 0 mm 2 m/S 584 mmHg 47%
    16:00 +3°C° 0 mm 3 m/S 584 mmHg 47%
    17:00 +1°C° 0 mm 3 m/S 583 mmHg 54%
    18:00 0°C° 0 mm 3 m/S 583 mmHg 60%
    19:00 -2°C° 0 mm 3 m/S 582 mmHg 66%
    20:00 -4°C° 0.1 mm 3 m/S 583 mmHg 67%
    21:00 -5°C° 0.1 mm 3 m/S 583 mmHg 67%
    22:00 -5°C° 0.1 mm 3 m/S 583 mmHg 68%
    23:00 -6°C° 0 mm 3 m/S 583 mmHg 67%

    26 März, Dienstag

    Zeit Temperatur Niederschläge Wind Luftdruck Luftfeuchtigkeit
    00:00 -7°C° 0 mm 3 m/S 583 mmHg 67%
    01:00 -8°C° 0 mm 3 m/S 583 mmHg 66%
    02:00 -9°C° 0 mm 3 m/S 584 mmHg 65%
    03:00 -9°C° 0 mm 3 m/S 584 mmHg 63%
    04:00 -10°C° 0 mm 3 m/S 584 mmHg 61%
    05:00 -10°C° 0 mm 3 m/S 584 mmHg 58%
    06:00 -10°C° 0 mm 3 m/S 584 mmHg 55%
    07:00 -10°C° 0 mm 3 m/S 585 mmHg 52%
    08:00 -9°C° 0 mm 3 m/S 586 mmHg 42%
    09:00 -7°C° 0 mm 3 m/S 587 mmHg 33%
    10:00 -5°C° 0 mm 3 m/S 588 mmHg 23%
    11:00 -2°C° 0 mm 2 m/S 588 mmHg 22%
    12:00 -1°C° 0 mm 2 m/S 588 mmHg 21%
    13:00 +1°C° 0 mm 2 m/S 589 mmHg 19%
    14:00 +1°C° 0 mm 2 m/S 588 mmHg 22%
    15:00 0°C° 0 mm 3 m/S 588 mmHg 24%
    16:00 -1°C° 0 mm 3 m/S 588 mmHg 27%
    17:00 -2°C° 0 mm 3 m/S 587 mmHg 35%
    18:00 -5°C° 0 mm 3 m/S 587 mmHg 43%
    19:00 -6°C° 0 mm 2 m/S 586 mmHg 52%
    20:00 -7°C° 0 mm 2 m/S 586 mmHg 55%
    21:00 -7°C° 0 mm 2 m/S 587 mmHg 58%
    22:00 -8°C° 0 mm 2 m/S 587 mmHg 60%
    23:00 -8°C° 0 mm 2 m/S 587 mmHg 56%

    27 März, Mittwoch

    Zeit Temperatur Niederschläge Wind Luftdruck Luftfeuchtigkeit
    00:00 -8°C° 0 mm 2 m/S 587 mmHg 52%
    01:00 -8°C° 0 mm 2 m/S 587 mmHg 48%
    02:00 -8°C° 0 mm 2 m/S 586 mmHg 43%
    03:00 -8°C° 0 mm 2 m/S 586 mmHg 38%
    04:00 -8°C° 0 mm 2 m/S 586 mmHg 33%
    05:00 -8°C° 0 mm 2 m/S 586 mmHg 31%
    06:00 -7°C° 0 mm 2 m/S 587 mmHg 29%
    07:00 -7°C° 0 mm 2 m/S 587 mmHg 27%
    08:00 -4°C° 0 mm 2 m/S 588 mmHg 25%
    09:00 -2°C° 0 mm 2 m/S 589 mmHg 24%
    10:00 +2°C° 0 mm 2 m/S 590 mmHg 23%
    11:00 +3°C° 0 mm 2 m/S 590 mmHg 25%
    12:00 +3°C° 0 mm 2 m/S 590 mmHg 26%
    13:00 +4°C° 0 mm 2 m/S 591 mmHg 28%
    14:00 +4°C° 0 mm 2 m/S 590 mmHg 32%
    15:00 +3°C° 0 mm 2 m/S 590 mmHg 36%
    16:00 +3°C° 0 mm 2 m/S 589 mmHg 39%
    17:00 +1°C° 0 mm 2 m/S 589 mmHg 46%
    18:00 -2°C° 0 mm 2 m/S 588 mmHg 53%
    19:00 -4°C° 0 mm 2 m/S 588 mmHg 60%
    20:00 -4°C° 0 mm 2 m/S 588 mmHg 64%
    21:00 -3°C° 0 mm 1 m/S 588 mmHg 68%
    22:00 -4°C° 0 mm 1 m/S 588 mmHg 72%
    23:00 -4°C° 0 mm 1 m/S 588 mmHg 72%

    28 März, Donnerstag

    Zeit Temperatur Niederschläge Wind Luftdruck Luftfeuchtigkeit
    00:00 -6°C° 0 mm 1 m/S 588 mmHg 73%
    01:00 -6°C° 0 mm 1 m/S 588 mmHg 74%
    02:00 -6°C° 0 mm 1 m/S 588 mmHg 74%
    03:00 -6°C° 0 mm 1 m/S 587 mmHg 75%
    04:00 -7°C° 0 mm 0 m/S 587 mmHg 75%
    05:00 -6°C° 0 mm 0 m/S 588 mmHg 74%
    06:00 -6°C° 0 mm 0 m/S 588 mmHg 72%
    07:00 -6°C° 0 mm 0 m/S 588 mmHg 70%
    08:00 -2°C° 0 mm 1 m/S 589 mmHg 62%
    09:00 0°C° 0 mm 1 m/S 590 mmHg 53%
    10:00 +2°C° 0 mm 1 m/S 591 mmHg 45%
    11:00 +3°C° 0 mm 1 m/S 591 mmHg 42%
    12:00 +4°C° 0 mm 1 m/S 591 mmHg 39%
    13:00 +5°C° 0 mm 1 m/S 591 mmHg 36%
    14:00 +4°C° 0 mm 1 m/S 591 mmHg 37%
    15:00 +4°C° 0 mm 1 m/S 591 mmHg 38%
    16:00 +4°C° 0 mm 1 m/S 590 mmHg 39%
    17:00 +2°C° 0 mm 1 m/S 589 mmHg 48%
    18:00 0°C° 0 mm 1 m/S 589 mmHg 57%
    19:00 -2°C° 0 mm 1 m/S 588 mmHg 66%
    20:00 -2°C° 0 mm 1 m/S 588 mmHg 70%
    21:00 -4°C° 0 mm 0 m/S 588 mmHg 74%
    22:00 -5°C° 0 mm 0 m/S 588 mmHg 79%
    23:00 -5°C° 0 mm 0 m/S 588 mmHg 81%
    Mehr zeigen